This is the latest recevied weather packets stored in our database for station/object VO2AGO. If no packets are shown the sender has not sent any weather packets the latest 10 day(s).
| Time | Temp. | Humidity | Pressure | Rain* | Wind** | Luminosity | Snow |
|---|---|---|---|---|---|---|---|
| 1777399102 | 12.78° C | 53% | 102.1 hPa | 0 mm | 0 m/s | 1761 W/m² | - |
| 1777398652 | 12.78° C | - | - | - | 0 m/s | 1112 W/m² | - |
| 1777398203 | 13.89° C | 49% | 102.1 hPa | 0 mm | 0 m/s | 1942 W/m² | - |
| 1777397752 | 12.78° C | 52% | 102.1 hPa | 0 mm | 0 m/s | 1917 W/m² | - |
| 1777397301 | 13.33° C | 50% | 102.1 hPa | 0 mm | 0 m/s | 1938 W/m² | - |
| 1777396852 | 13.33° C | - | - | - | 0 m/s | 1109 W/m² | - |
| 1777396402 | 13.33° C | - | - | - | 0 m/s | 1127 W/m² | - |
| 1777395953 | 13.89° C | - | - | - | 0 m/s | 1125 W/m² | - |
| 1777395501 | 15° C | - | - | - | 0 m/s | 1127 W/m² | - |
| 1777395051 | 14.44° C | 47% | 102.1 hPa | 0 mm | 0 m/s | 1872 W/m² | - |
| 1777394600 | 13.89° C | - | - | - | 0 m/s | 1108 W/m² | - |
| 1777394152 | 13.89° C | - | - | - | 0 m/s | 1102 W/m² | - |
| 1777393703 | 14.44° C | - | - | - | 0 m/s | 1120 W/m² | - |
| 1777393252 | 15° C | 43% | 102.2 hPa | 0 mm | 0 m/s | 1826 W/m² | - |
| 1777392802 | 16.11° C | 41% | 102.2 hPa | 0 mm | 0 m/s | 1843 W/m² | - |
| 1777392352 | 15° C | 44% | 102.2 hPa | 0 mm | 0 m/s | 1695 W/m² | - |
| 1777391903 | 15° C | - | - | - | 0 m/s | 1121 W/m² | - |
| 1777391451 | 14.44° C | 45% | 102.2 hPa | 0 mm | 0 m/s | 1722 W/m² | - |
| 1777391002 | 14.44° C | 46% | 102.2 hPa | 0 mm | 0 m/s | 1765 W/m² | - |
| 1777390552 | 14.44° C | - | - | - | 0 m/s | 1104 W/m² | - |
| 1777390102 | 15° C | 45% | 102.2 hPa | 0 mm | 0 m/s | 1856 W/m² | - |
| 1777389653 | 13.89° C | 47% | 102.3 hPa | 0 mm | 0 m/s | 1982 W/m² | - |
| 1777389201 | 15.56° C | - | - | - | 0 m/s | 1111 W/m² | - |
| 1777388752 | 14.44° C | - | - | - | 0 m/s | 1104 W/m² | - |
| 1777388302 | 14.44° C | - | - | - | 0 m/s | 1100 W/m² | - |
* Rain latest hour (hover to see other rain measurements)
** Current wind speed in m/s (hover to see current wind gust speed)